Location: Pasadena, ca
(34.1243°N, 118.1037°W)
Time: 01:35:24
(UTC-08:00)

Tiangong 1 - Pass Details

Date: 10 November 2017
Orbit: 283 x 307 km, 42.8° (Epoch: 23 November)

Event Time Altitude Azimuth Distance (km) Brightness Sun altitude
Exits shadow 04:32:43 10° 42° (NE) 1,123 3.8 -22.5°
Drops below altitude 10° 04:32:47 10° 43° (NE) 1,138 3.9 -22.5°
Sets 04:35:22 0° 72° (ENE) 1,965 5.8 -22.0°
